Home   Weather   Kawartha Lakes   Past weeks

Flag for Canada Past Weather in Kawartha Lakes, Ontario, Canada — Yesterday and Last 2 Weeks

Now
24 °F

Cold.


Feels Like: 18 °F
Forecast: 20 / 31 °F
Wind: 5 mph from Northeast

Location: Lagoon City

Current Time: Dec 4, 2016 at 5:28:20 am

Latest Report: Dec 4, 2016 at 5:00 am


Visibility: N/A

Pressure: 30.26 "Hg

Humidity: 93%

Dew Point: 22 °F

Location of Kawartha LakesLocation

Past Weather in Kawartha Lakes — Graph

°F

Kawartha Lakes Temperature Yesterday

Maximum temperature yesterday: 36 °F (at 4:00 pm)
Minimum temperature yesterday: 30 °F (at 11:00 pm)
Average temperature yesterday: 33 °F

High & Low Weather Summary for the Past Weeks

 TemperatureHumidityPressure
High56 °F (Nov 19, 4:00 am)100% (Nov 24, 8:00 pm)30.38 "Hg (Nov 24, 8:00 pm)
Low15 °F (Nov 23, 7:00 am)63% (Nov 19, 7:00 am)29.38 "Hg (Dec 1, 1:00 am)
Average35 °F83%29.94 "Hg
* Reported Nov 19 4:00 am — Dec 4 4:00 am, Kawartha Lakes, Weather by CustomWeather, © 2016

Note: Actual official high and low records may vary slightly from our data, if they occured in-between our weather recording intervals... More about our weather records

Advertising

Kawartha Lakes Weather History for the Previous 24 Hours

Scroll right to see more
 ConditionsComfort  
Time TempWeatherWind HumidityBarometerVisibility
4:00 am
Sun, Dec 4
24 °FCold.5 mph93%30.26 "HgN/A
3:00 am26 °FChilly.5 mph89%30.27 "HgN/A
2:00 am27 °FChilly.3 mph96%30.26 "HgN/A
1:00 am28 °FChilly.3 mph85%30.26 "HgN/A
12:00 am28 °FChilly.2 mph86%30.24 "HgN/A
11:00 pm
Sat, Dec 3
30 °FChilly.5 mph80%30.23 "HgN/A
10:00 pm31 °FChilly.3 mph78%30.22 "HgN/A
9:00 pm32 °FChilly.5 mph79%30.21 "HgN/A
8:00 pm34 °FChilly.8 mph76%30.22 "HgN/A
7:00 pm34 °FChilly.7 mph73%30.22 "HgN/A
6:00 pm35 °FChilly.10 mph75%30.21 "HgN/A
5:00 pm36 °FChilly.6 mph71%30.20 "HgN/A
4:00 pm36 °FChilly.9 mph67%30.18 "HgN/A
3:00 pm35 °FChilly.8 mph68%30.16 "HgN/A
2:00 pm34 °FChilly.9 mph73%30.15 "HgN/A
1:00 pm34 °FChilly.13 mph72%30.15 "HgN/A
12:00 pm33 °FChilly.14 mph72%30.16 "HgN/A
11:00 am31 °FChilly.14 mph80%30.17 "HgN/A
10:00 am32 °FChilly.10 mph79%30.16 "HgN/A
9:00 am31 °FChilly.13 mph79%30.15 "HgN/A
8:00 am31 °FChilly.12 mph79%30.13 "HgN/A
7:00 am32 °FChilly.13 mph79%30.11 "HgN/A
6:00 am32 °FChilly.10 mph78%30.10 "HgN/A
5:00 am32 °FChilly.10 mph78%30.09 "HgN/A
Weather by CustomWeather, © 2016

See weather overviewHow to use our weather pages